| time (UTC) | temp F | wind direction | speed MPH | gust MPH | rain 1hr in | rain 24hr in | rain mn in | humidity % | barometer mb |
| 20260504044559 | 57 | 113 | 1.0 | 6.0 | 0.00 | 0.00 | 0.00 | 91 | 1014.3 |
| 20260504043046 | 56 | 113 | 0.0 | 0.0 | 0.00 | 0.00 | 0.00 | 91 | 1014.0 |
| 20260504041545 | 56 | 113 | 0.0 | 0.0 | 0.00 | 0.00 | 0.00 | 91 | 1013.9 |
| 20260504040045 | 56 | 113 | 0.0 | 7.0 | 0.00 | 0.00 | 0.00 | 91 | 1013.9 |
| 20260504034552 | 56 | 113 | 3.0 | 8.0 | 0.00 | 0.00 | 0.00 | 92 | 1014.0 |
| 20260504033052 | 55 | 115 | 4.0 | 10.0 | 0.00 | 0.00 | 0.00 | 92 | 1013.9 |
| 20260504031542 | 55 | 115 | 3.0 | 8.0 | 0.00 | 0.00 | 0.00 | 92 | 1013.8 |
| 20260504030041 | 55 | 115 | 4.0 | 10.0 | 0.00 | 0.00 | 0.00 | 93 | 1013.6 |
| 20260504024544 | 54 | 115 | 4.0 | 12.0 | 0.00 | 0.00 | 0.00 | 93 | 1013.4 |
| 20260504023037 | 55 | 115 | 1.0 | 9.0 | 0.00 | 0.00 | 0.00 | 93 | 1013.5 |
| 20260504021536 | 55 | 115 | 2.0 | 6.0 | 0.00 | 0.00 | 0.00 | 93 | 1013.4 |
| 20260504020035 | 55 | 115 | 0.0 | 6.0 | 0.00 | 0.00 | 0.00 | 93 | 1013.3 |
| 20260504014535 | 55 | 115 | 0.0 | 0.0 | 0.00 | 0.00 | 0.00 | 93 | 1013.3 |
| 20260504013036 | 56 | 115 | 0.0 | 4.0 | 0.00 | 0.00 | 0.00 | 92 | 1013.2 |
| 20260504011529 | 56 | 115 | 0.0 | 9.0 | 0.00 | 0.00 | 0.00 | 92 | 1013.2 |
| 20260504010028 | 57 | 115 | 0.0 | 2.0 | 0.00 | 0.00 | 0.00 | 92 | 1013.1 |
| 20260504004526 | 57 | 115 | 0.0 | 1.0 | 0.00 | 0.00 | 0.00 | 92 | 1013.2 |
| 20260504003024 | 58 | 115 | 0.0 | 1.0 | 0.00 | 0.00 | 0.00 | 92 | 1013.2 |
| 20260504001522 | 58 | 115 | 0.0 | 6.0 | 0.00 | 0.00 | 0.00 | 92 | 1013.1 |
| 20260504000021 | 58 | 115 | 0.0 | 0.0 | 0.00 | 0.00 | 0.00 | 92 | 1013.1 |
| 20260503234520 | 58 | 115 | 0.0 | 0.0 | 0.00 | 0.00 | 0.00 | 92 | 1013.1 |
| 20260503233018 | 58 | 115 | 0.0 | 0.0 | 0.00 | 0.00 | 0.00 | 92 | 1013.2 |
| 20260503231517 | 59 | 115 | 0.0 | 0.0 | 0.00 | 0.00 | 0.00 | 92 | 1013.3 |
| 20260503230017 | 59 | 115 | 0.0 | 0.0 | 0.00 | 0.00 | 0.00 | 92 | 1013.4 |
| 20260503224515 | 58 | 115 | 0.0 | 0.0 | 0.00 | 0.00 | 0.00 | 91 | 1013.4 |
| 20260503223012 | 59 | 115 | 0.0 | 0.0 | 0.00 | 0.00 | 0.00 | 91 | 1013.6 |
| 20260503221523 | 59 | 115 | 0.0 | 0.0 | 0.00 | 0.00 | 0.00 | 91 | 1013.7 |
| 20260503220010 | 59 | 115 | 0.0 | 0.0 | 0.00 | 0.00 | 0.00 | 91 | 1013.9 |
| 20260503214509 | 59 | 115 | 0.0 | 0.0 | 0.00 | 0.00 | 0.00 | 90 | 1014.0 |
| 20260503213017 | 59 | 115 | 0.0 | 0.0 | 0.00 | 0.00 | 0.00 | 89 | 1014.0 |
| 20260503211509 | 60 | 115 | 0.0 | 4.0 | 0.00 | 0.00 | 0.00 | 88 | 1014.2 |
| 20260503210100 | 60 | 115 | 3.0 | 8.0 | 0.00 | 0.00 | 0.00 | 88 | 1014.3 |
| 20260503204607 | 60 | 115 | 2.0 | 9.0 | 0.00 | 0.00 | 0.00 | 88 | 1014.5 |
| 20260503203058 | 60 | 115 | 0.0 | 7.0 | 0.00 | 0.00 | 0.00 | 88 | 1014.6 |
| 20260503203000 | 60 | 115 | 1.0 | 10.0 | 0.00 | 0.00 | 0.00 | 88 | 1014.6 |
| 20260503201559 | 60 | 115 | 4.0 | 10.0 | 0.00 | 0.00 | 0.00 | 89 | 1014.6 |
| 20260503200058 | 60 | 116 | 0.0 | 6.0 | 0.00 | 0.00 | 0.00 | 89 | 1014.5 |
| 20260503194558 | 60 | 116 | 4.0 | 12.0 | 0.00 | 0.00 | 0.00 | 90 | 1014.5 |
| 20260503193121 | 60 | 116 | 0.0 | 7.0 | 0.00 | 0.00 | 0.00 | 89 | 1014.5 |
| 20260503191600 | 60 | 116 | 1.0 | 4.0 | 0.00 | 0.00 | 0.00 | 89 | 1014.5 |
| 20260503190059 | 60 | 116 | 0.0 | 1.0 | 0.00 | 0.00 | 0.00 | 89 | 1014.5 |
| 20260503184557 | 60 | 116 | 0.0 | 2.0 | 0.00 | 0.00 | 0.00 | 89 | 1014.3 |
| 20260503183059 | 60 | 116 | 0.0 | 0.0 | 0.00 | 0.00 | 0.00 | 89 | 1014.2 |
| 20260503181620 | 61 | 116 | 0.0 | 0.0 | 0.00 | 0.00 | 0.00 | 90 | 1014.1 |
| 20260503180122 | 61 | 116 | 0.0 | 0.0 | 0.00 | 0.00 | 0.00 | 90 | 1014.0 |
| 20260503174557 | 61 | 116 | 0.0 | 2.0 | 0.00 | 0.00 | 0.00 | 90 | 1014.0 |
| 20260503173058 | 61 | 116 | 0.0 | 6.0 | 0.00 | 0.00 | 0.00 | 90 | 1013.6 |
| 20260503171551 | 61 | 116 | 0.0 | 4.0 | 0.00 | 0.00 | 0.00 | 90 | 1013.3 |
| 20260503081516 | 63 | 114 | 0.0 | 0.0 | 0.00 | 0.00 | 0.00 | 86 | 1016.8 |
| 20260503071514 | 61 | 114 | 0.0 | 0.0 | 0.00 | 0.00 | 0.00 | 87 | 1017.1 |
| 20260503054501 | 62 | 114 | 0.0 | 0.0 | 0.00 | 0.00 | 0.00 | 88 | 1016.4 |
| 20260503053058 | 62 | 114 | 0.0 | 0.0 | 0.00 | 0.00 | 0.00 | 92 | 1016.3 |
| 20260503051554 | 59 | 114 | 0.0 | 0.0 | 0.00 | 0.00 | 0.00 | 93 | 1016.1 |